Temp
39 39 39 39 38 38 37 36 36 36 35 35 35 34 34 32 31 31 30 30 30 30 30 30 30 30 30 29 29 29 29 28 27 27 27 27 26 26 26 25 25 25
38 39 39 38 37 36 36 37 36 36 35 35 34 33 32 31 31 31 30 30 30 30 29 29 29 29 29 29 29 29 28 28 27 28 27 26 26 26 25 25 25 25
37 37 37 37 37 36 36 35 35 35 35 34 32 32 31 31 30 30 30 30 30 29 29 29 29 29 29 28 28 29 28 27 27 26 27 26 26 26 25 25 25 24
37 37 37 37 36 36 35 34 33 33 32 31 31 31 31 31 30 30 29 30 29 29 28 28 28 28 28 28 28 28 27 27 27 27 26 26 26 25 25 25 25 24
36 36 36 36 35 35 34 34 33 32 32 32 31 30 30 30 30 29 29 29 29 28 28 28 27 27 27 27 27 27 26 26 26 27 27 25 25 25 25 25 24 23
36 36 35 35 35 34 34 34 33 32 32 30 31 31 30 30 30 29 29 28 28 29 28 28 28 27 27 27 27 27 26 26 26 26 26 25 24 25 25 24 24 23
35 35 34 34 33 34 34 34 33 32 31 31 30 30 30 29 29 29 29 29 28 29 29 28 28 27 26 26 26 26 26 26 25 26 25 24 24 23 23 23 23 23
35 35 34 33 33 33 34 34 33 32 31 30 30 30 30 30 29 29 29 29 29 28 28 28 27 27 26 26 26 25 25 26 26 25 24 23 24 23 23 23 23 22
35 34 33 33 33 33 33 32 32 31 30 31 31 30 30 30 30 29 29 29 28 28 28 27 27 27 26 26 26 26 25 25 26 25 25 23 23 22 22 22 21 21
34 34 33 33 33 33 33 31 31 31 31 31 31 30 30 29 29 29 28 29 28 27 27 28 27 26 26 26 27 27 26 26 25 25 25 23 23 21 21 21 21 20
34 34 33 33 34 33 32 32 31 31 31 31 30 30 30 29 29 29 29 29 29 28 27 27 27 27 26 27 27 27 27 27 25 25 24 22 22 22 23 21 20 21
35 34 34 34 35 34 34 33 32 32 31 30 30 30 30 30 30 29 30 30 30 29 29 28 29 28 26 26 26 27 27 27 25 25 24 22 21 21 21 20 20 20
35 34 35 35 35 35 35 33 32 32 31 31 31 31 31 30 30 30 30 30 30 30 29 29 30 28 27 27 28 27 27 26 24 23 21 20 20 20 20 20 20 20
35 36 36 36 36 35 34 33 32 32 32 32 31 31 31 31 31 30 30 30 30 30 29 28 29 29 28 27 27 27 26 25 23 22 21 21 19 19 19 19 19 19
36 36 36 35 34 33 33 32 32 32 32 31 31 31 31 31 31 31 30 30 30 30 29 29 28 28 29 27 26 26 26 24 22 22 23 22 19 19 18 19 18 19
35 35 35 34 33 33 33 32 32 31 31 30 30 31 31 30 30 30 30 29 29 29 29 29 28 29 29 30 30 26 26 25 23 23 23 21 19 18 18 18 18 18
35 34 34 33 33 33 31 31 31 30 29 29 29 29 29 29 29 29 29 29 29 28 28 28 28 29 30 32 32 31 27 26 24 22 21 20 19 18 18 18 18 18
34 34 33 33 32 31 31 30 30 29 29 28 28 28 28 28 28 29 29 29 29 28 28 28 28 30 32 33 34 33 30 26 24 22 20 20 20 19 19 18 17 18
34 33 32 31 31 31 30 29 29 29 28 28 27 28 27 27 28 28 28 28 28 28 27 28 28 31 33 34 35 34 32 28 23 22 20 20 21 19 18 17 16 17
33 32 31 31 31 30 29 29 28 28 29 28 28 27 27 27 27 27 27 27 28 28 27 27 27 30 33 35 35 35 34 30 22 21 21 21 21 19 18 17 17 16
32 32 31 30 30 29 29 28 28 28 28 28 28 28 27 26 27 26 26 26 26 26 27 26 27 30 33 35 35 35 35 32 22 21 21 20 20 19 18 17 17 17
31 30 30 30 30 29 28 28 28 28 28 28 27 28 27 27 27 26 26 25 26 24 25 25 27 31 32 34 35 36 36 30 21 21 20 19 18 18 18 18 18 17
32 31 30 30 29 28 28 28 28 27 28 28 27 28 27 26 26 26 26 25 25 24 24 25 25 29 32 33 35 36 35 28 22 21 20 18 18 18 18 18 17 17
32 31 30 30 29 28 28 28 29 29 28 28 27 27 26 26 26 26 25 25 24 23 24 24 24 27 31 32 34 35 34 28 23 22 20 19 18 19 18 17 18 20
32 32 31 30 29 29 29 28 29 29 29 27 27 27 27 26 25 25 24 24 23 24 25 24 23 25 30 31 33 35 34 28 24 21 20 20 20 19 19 18 17 19
31 31 31 30 30 29 29 29 29 28 27 27 26 26 26 25 24 24 23 24 23 21 21 22 22 21 23 30 32 34 35 29 23 21 20 20 20 19 17 16 17 16
MSLP
1025.05 1025.29 1025.43 1025.73 1025.93 1026.23 1026.63 1026.97 1027.17 1027.19 1027.43 1027.77 1027.85 1028.31 1028.55 1029.01 1029.39 1029.55 1029.75 1029.99 1030.17 1030.31 1030.53 1030.73 1030.95 1031.15 1031.33 1031.43 1031.59 1031.85 1032.21 1032.59 1032.93 1033.15 1033.29 1033.39 1033.57 1033.59 1033.75 1033.99 1034.19 1034.29
1025.11 1025.21 1025.45 1025.69 1026.07 1026.45 1026.77 1026.89 1026.87 1026.93 1027.29 1027.63 1027.89 1028.29 1028.77 1029.05 1029.35 1029.51 1029.73 1029.99 1030.23 1030.39 1030.63 1030.85 1031.03 1031.15 1031.29 1031.45 1031.71 1031.95 1032.47 1032.73 1032.97 1033.29 1033.27 1033.33 1033.51 1033.57 1033.73 1033.97 1034.19 1034.43
1025.09 1025.33 1025.45 1025.51 1025.75 1026.21 1026.61 1026.93 1027.01 1027.11 1027.31 1027.69 1028.11 1028.47 1028.79 1029.07 1029.33 1029.61 1029.75 1029.89 1030.15 1030.47 1030.73 1030.93 1031.11 1031.23 1031.33 1031.55 1031.87 1032.15 1032.47 1032.81 1033.01 1033.37 1033.35 1033.33 1033.47 1033.47 1033.85 1034.05 1034.23 1034.27
1025.11 1025.23 1025.41 1025.61 1025.83 1026.19 1026.63 1026.89 1027.17 1027.37 1027.67 1027.97 1028.21 1028.51 1028.73 1029.01 1029.25 1029.51 1029.73 1029.91 1030.11 1030.45 1030.75 1030.93 1031.05 1031.23 1031.39 1031.69 1032.01 1032.39 1032.67 1032.89 1033.09 1033.25 1033.29 1033.49 1033.51 1033.53 1033.73 1033.97 1034.31 1034.57
1024.97 1025.23 1025.43 1025.61 1025.91 1026.25 1026.55 1026.73 1026.99 1027.35 1027.59 1027.83 1028.29 1028.59 1028.79 1029.03 1029.25 1029.49 1029.69 1029.95 1030.13 1030.41 1030.67 1030.81 1031.03 1031.19 1031.47 1031.79 1032.07 1032.39 1032.77 1032.95 1033.11 1033.03 1033.01 1033.21 1033.49 1033.45 1033.65 1033.79 1034.11 1034.45
1024.95 1025.17 1025.35 1025.55 1025.81 1026.13 1026.43 1026.55 1026.85 1027.21 1027.57 1027.91 1028.13 1028.47 1028.73 1028.95 1029.13 1029.33 1029.55 1029.81 1030.13 1030.29 1030.51 1030.75 1030.97 1031.33 1031.59 1031.91 1032.25 1032.49 1032.75 1032.91 1032.95 1032.91 1032.97 1033.11 1033.39 1033.49 1033.55 1033.73 1033.99 1034.31
1024.65 1024.97 1025.25 1025.61 1025.95 1026.19 1026.27 1026.59 1026.97 1027.27 1027.51 1027.71 1028.15 1028.43 1028.67 1028.91 1029.09 1029.25 1029.45 1029.69 1029.99 1030.17 1030.33 1030.63 1030.97 1031.39 1031.81 1032.13 1032.39 1032.65 1032.89 1032.89 1032.99 1033.05 1033.05 1033.27 1033.25 1033.33 1033.55 1033.69 1033.91 1034.19
1024.51 1024.89 1025.19 1025.55 1025.85 1026.11 1026.27 1026.59 1026.95 1027.25 1027.51 1027.85 1028.03 1028.35 1028.59 1028.75 1028.95 1029.19 1029.41 1029.69 1029.89 1030.09 1030.35 1030.67 1031.01 1031.31 1031.73 1032.07 1032.45 1032.79 1032.97 1033.03 1032.95 1033.01 1033.13 1033.21 1033.21 1033.21 1033.49 1033.73 1033.89 1034.09
1024.53 1024.81 1025.11 1025.45 1025.73 1026.01 1026.21 1026.63 1026.99 1027.29 1027.53 1027.65 1027.91 1028.29 1028.59 1028.69 1028.81 1029.03 1029.31 1029.59 1029.79 1030.05 1030.33 1030.63 1030.83 1031.13 1031.63 1032.07 1032.51 1032.77 1032.87 1032.97 1032.95 1032.83 1032.75 1032.87 1033.07 1033.27 1033.43 1033.67 1033.85 1034.09
1024.41 1024.71 1025.03 1025.31 1025.53 1025.79 1026.11 1026.59 1026.97 1027.27 1027.49 1027.61 1027.83 1028.21 1028.45 1028.75 1028.91 1029.03 1029.29 1029.47 1029.65 1029.99 1030.27 1030.47 1030.77 1031.15 1031.65 1032.03 1032.27 1032.43 1032.53 1032.67 1032.85 1032.75 1032.63 1032.71 1032.95 1033.23 1033.41 1033.53 1033.69 1034.05
1024.19 1024.51 1024.75 1025.03 1025.27 1025.65 1026.03 1026.53 1026.91 1027.21 1027.43 1027.51 1027.85 1028.19 1028.43 1028.69 1028.93 1029.09 1029.21 1029.31 1029.39 1029.63 1029.97 1030.29 1030.55 1030.93 1031.35 1031.75 1032.07 1032.33 1032.43 1032.47 1032.55 1032.57 1032.55 1032.73 1032.99 1033.13 1033.25 1033.37 1033.61 1033.75
1023.79 1024.17 1024.43 1024.69 1025.03 1025.43 1025.87 1026.35 1026.81 1027.15 1027.39 1027.63 1027.85 1028.07 1028.41 1028.59 1028.69 1028.95 1028.99 1029.01 1029.15 1029.39 1029.65 1029.97 1030.33 1030.67 1030.99 1031.35 1031.85 1032.23 1032.33 1032.29 1032.39 1032.45 1032.51 1032.71 1032.99 1033.11 1033.23 1033.35 1033.45 1033.67
1023.43 1023.75 1024.11 1024.53 1024.87 1025.23 1025.79 1026.33 1026.75 1027.13 1027.43 1027.65 1027.97 1028.19 1028.35 1028.53 1028.79 1028.95 1029.07 1029.03 1029.19 1029.49 1029.63 1029.77 1030.11 1030.57 1030.97 1031.33 1031.77 1032.09 1032.07 1031.97 1032.17 1032.33 1032.49 1032.79 1032.99 1033.07 1033.21 1033.35 1033.43 1033.57
1023.15 1023.61 1024.03 1024.41 1024.83 1025.29 1025.73 1026.21 1026.63 1027.01 1027.33 1027.67 1028.01 1028.19 1028.29 1028.41 1028.61 1028.87 1029.15 1029.31 1029.43 1029.63 1029.81 1029.99 1030.23 1030.57 1030.89 1031.29 1031.71 1031.91 1031.75 1031.77 1031.93 1032.07 1032.39 1032.77 1032.97 1033.09 1033.19 1033.25 1033.31 1033.41
1023.01 1023.49 1023.89 1024.33 1024.79 1025.23 1025.67 1026.05 1026.41 1026.77 1027.13 1027.47 1027.79 1027.99 1028.19 1028.37 1028.67 1028.99 1029.27 1029.47 1029.63 1029.75 1029.91 1030.13 1030.35 1030.51 1030.75 1031.13 1031.59 1031.79 1031.59 1031.61 1031.85 1031.95 1032.23 1032.63 1032.91 1033.07 1033.19 1033.19 1033.21 1033.25
1022.99 1023.47 1023.85 1024.23 1024.67 1025.03 1025.43 1025.91 1026.29 1026.69 1027.07 1027.43 1027.69 1027.93 1028.19 1028.41 1028.65 1028.91 1029.15 1029.29 1029.47 1029.63 1029.81 1030.07 1030.27 1030.41 1030.63 1030.87 1031.15 1031.23 1031.27 1031.47 1031.69 1031.85 1032.13 1032.53 1032.79 1032.99 1033.07 1033.05 1032.99 1033.09
1023.01 1023.47 1023.87 1024.19 1024.45 1024.91 1025.43 1025.87 1026.23 1026.63 1027.01 1027.33 1027.61 1027.81 1028.05 1028.35 1028.59 1028.85 1029.05 1029.21 1029.31 1029.43 1029.65 1029.85 1030.01 1030.19 1030.43 1030.55 1030.65 1030.77 1030.81 1031.03 1031.29 1031.63 1031.99 1032.35 1032.63 1032.75 1032.65 1032.69 1032.81 1032.95
1022.81 1023.35 1023.81 1024.15 1024.49 1024.81 1025.29 1025.81 1026.25 1026.65 1026.97 1027.31 1027.65 1027.95 1028.19 1028.47 1028.63 1028.75 1028.95 1029.09 1029.15 1029.25 1029.39 1029.51 1029.69 1029.97 1030.23 1030.27 1030.25 1030.27 1030.43 1030.67 1031.03 1031.35 1031.75 1032.05 1032.35 1032.51 1032.47 1032.51 1032.55 1032.77
1022.63 1023.17 1023.63 1024.07 1024.41 1024.77 1025.19 1025.67 1026.03 1026.41 1026.79 1027.13 1027.37 1027.69 1028.17 1028.39 1028.45 1028.67 1028.77 1028.87 1028.93 1028.95 1029.07 1029.23 1029.51 1029.77 1029.95 1029.87 1029.83 1029.83 1029.99 1030.41 1030.87 1031.15 1031.49 1031.73 1031.95 1032.13 1032.25 1032.31 1032.43 1032.53
1022.43 1022.91 1023.37 1023.81 1024.27 1024.63 1024.97 1025.31 1025.69 1025.93 1026.21 1026.65 1027.19 1027.69 1027.93 1028.15 1028.37 1028.51 1028.63 1028.71 1028.69 1028.71 1028.81 1029.01 1029.21 1029.43 1029.51 1029.43 1029.37 1029.35 1029.51 1030.01 1030.67 1030.93 1031.17 1031.41 1031.57 1031.77 1031.91 1032.03 1032.11 1032.15
1022.31 1022.77 1023.23 1023.71 1024.11 1024.47 1024.79 1025.11 1025.41 1025.81 1026.17 1026.51 1026.87 1027.15 1027.47 1027.67 1027.89 1028.19 1028.35 1028.47 1028.61 1028.65 1028.69 1028.75 1028.83 1029.09 1029.17 1029.05 1028.95 1028.87 1029.01 1029.55 1030.45 1030.81 1031.03 1031.21 1031.39 1031.51 1031.59 1031.67 1031.79 1031.87
1021.95 1022.53 1023.05 1023.43 1023.87 1024.33 1024.67 1024.95 1025.27 1025.51 1025.87 1026.31 1026.73 1027.01 1027.31 1027.61 1027.85 1028.09 1028.19 1028.29 1028.41 1028.57 1028.61 1028.51 1028.47 1028.67 1028.75 1028.69 1028.59 1028.45 1028.59 1029.21 1030.07 1030.45 1030.69 1030.93 1031.13 1031.21 1031.31 1031.43 1031.53 1031.63
1021.63 1022.09 1022.61 1023.15 1023.69 1024.13 1024.49 1024.81 1025.13 1025.53 1025.95 1026.31 1026.65 1026.79 1027.05 1027.25 1027.37 1027.49 1027.69 1028.01 1028.19 1028.31 1028.29 1028.09 1028.19 1028.37 1028.45 1028.45 1028.43 1028.25 1028.37 1028.87 1029.65 1030.11 1030.39 1030.61 1030.63 1030.79 1030.97 1031.09 1031.19 1031.27
1021.29 1021.83 1022.41 1022.97 1023.47 1023.83 1024.21 1024.63 1025.03 1025.47 1025.81 1026.09 1026.29 1026.47 1026.69 1026.77 1027.09 1027.43 1027.69 1027.81 1027.89 1027.91 1027.85 1027.87 1027.81 1028.09 1028.21 1028.25 1028.29 1028.23 1028.17 1028.51 1029.19 1029.61 1029.87 1030.13 1030.29 1030.45 1030.63 1030.77 1030.79 1030.85
1021.23 1021.75 1022.25 1022.81 1023.27 1023.65 1024.09 1024.51 1024.83 1025.09 1025.41 1025.95 1026.19 1026.37 1026.47 1026.75 1027.15 1027.31 1027.41 1027.55 1027.59 1027.57 1027.67 1027.79 1027.73 1027.95 1028.01 1028.03 1028.05 1028.05 1028.09 1028.41 1029.05 1029.47 1029.67 1029.69 1029.83 1029.97 1030.11 1030.33 1030.45 1030.47
1021.33 1021.77 1022.21 1022.61 1022.97 1023.43 1023.87 1024.17 1024.49 1024.97 1025.25 1025.57 1025.93 1026.15 1026.35 1026.61 1026.89 1027.05 1027.11 1027.13 1027.33 1027.55 1027.59 1027.61 1027.75 1027.87 1028.03 1027.87 1027.83 1027.81 1027.77 1028.15 1028.77 1029.25 1029.21 1029.11 1029.37 1029.51 1029.77 1029.85 1029.93 1030.11
Wind_Speed
11 10 11 11 10 9 10 10 8 9 8 7 8 8 8 7 7 7 6 6 6 7 7 7 6 7 6 6 7 7 6 7 6 5 6 7 6 6 7 5 4 5
11 11 9 9 8 7 7 7 9 10 10 8 7 8 6 8 6 7 8 7 6 7 6 6 6 7 7 7 7 8 6 6 6 3 6 6 6 6 7 6 6 4
10 9 10 11 11 11 9 7 7 7 8 7 7 7 7 6 8 6 7 8 8 7 6 6 6 6 7 7 6 6 7 6 6 4 5 6 5 7 6 6 5 5
9 10 10 9 9 11 9 9 7 6 6 7 8 7 7 7 7 8 7 7 8 7 6 6 7 6 6 6 6 6 5 5 5 6 6 5 5 6 6 6 6 5
11 10 9 8 8 8 9 10 10 8 9 8 7 7 8 8 8 8 7 7 7 7 7 7 6 7 6 6 6 7 5 6 5 6 7 6 5 6 6 7 7 6
9 8 8 9 9 10 10 10 10 10 9 9 9 8 7 8 8 8 9 9 7 8 7 6 7 6 6 6 5 5 6 6 5 6 7 7 6 5 5 6 7 6
11 10 10 8 8 9 10 9 8 8 8 8 7 8 8 8 8 9 9 8 8 8 8 8 7 7 5 5 5 5 4 5 5 5 6 5 6 6 5 6 6 6
11 8 9 8 10 9 9 9 9 9 8 8 9 8 8 9 9 8 8 8 8 8 7 7 7 7 7 6 6 5 4 4 6 6 6 6 5 6 5 5 6 7
9 9 9 9 11 9 9 9 8 7 7 10 9 8 7 8 9 9 9 8 7 7 7 7 8 8 6 6 5 6 6 5 6 7 8 8 6 6 6 5 6 6
10 9 10 10 11 9 10 9 8 8 8 9 8 8 9 7 6 8 8 8 8 8 8 8 7 7 6 6 7 7 7 8 7 6 6 6 7 7 6 6 7 6
11 11 12 12 11 9 10 9 9 8 8 9 8 8 8 8 7 7 8 9 10 10 10 8 8 8 8 7 6 5 7 7 7 6 6 6 6 6 7 7 7 7
12 11 13 13 12 11 11 10 9 9 8 7 8 9 8 8 9 8 9 10 9 10 9 9 9 9 9 8 7 7 7 6 6 6 6 5 5 5 6 6 7 6
13 13 12 11 11 10 9 9 9 8 8 8 7 8 9 9 8 8 7 8 8 8 8 9 9 8 7 7 7 8 9 8 7 6 5 4 4 5 5 5 6 6
12 10 10 10 9 8 9 9 9 8 8 7 7 9 9 9 9 9 7 6 6 7 6 6 6 7 7 7 7 8 8 7 7 7 6 4 4 4 5 5 5 6
9 9 8 9 9 9 10 10 10 9 9 8 8 8 7 7 6 6 7 7 5 6 6 6 7 7 7 8 9 9 8 8 7 7 7 6 5 5 5 5 5 5
9 8 9 9 10 11 10 9 9 9 8 8 8 7 7 7 7 7 7 8 8 7 6 6 6 6 8 14 12 10 9 7 7 7 7 6 6 6 6 6 6 5
9 9 9 10 10 9 7 9 9 8 8 7 7 8 8 7 7 8 8 7 8 7 8 7 7 7 13 16 16 15 10 8 8 7 7 7 6 7 8 7 6 6
10 9 10 10 9 9 8 7 7 7 7 7 6 6 7 5 7 8 7 7 7 7 8 8 8 9 15 17 17 16 12 8 7 7 7 7 8 8 7 6 7 7
9 10 10 8 8 8 8 8 8 8 8 8 10 7 5 7 9 8 9 8 8 9 9 8 7 11 17 18 18 17 16 11 6 7 7 8 8 8 7 7 6 7
10 9 9 8 7 8 8 9 9 11 9 7 6 6 8 8 7 9 8 9 9 9 9 8 9 12 18 19 18 18 17 13 6 7 7 7 9 8 7 8 8 8
9 9 8 8 8 8 8 9 9 8 8 8 8 10 10 11 10 10 9 9 9 8 8 8 9 13 18 20 19 19 18 13 7 6 6 7 7 7 8 7 7 7
10 9 9 9 9 8 9 9 9 10 10 8 7 7 6 5 6 6 9 9 9 8 8 10 9 16 18 19 20 19 20 9 8 8 8 8 7 8 7 7 7 7
11 12 11 9 9 9 9 9 9 9 8 6 8 8 8 9 9 10 9 9 9 9 10 11 8 12 18 19 19 20 15 8 8 7 7 8 9 8 7 7 7 7
11 10 10 9 9 10 10 9 8 6 8 7 9 10 10 11 9 7 7 8 9 11 11 11 10 10 16 17 18 19 14 9 8 8 8 8 8 7 6 7 8 14
9 9 9 9 10 10 10 10 10 10 8 7 7 7 8 6 6 7 7 7 8 10 8 10 9 8 14 16 18 19 14 7 7 7 8 9 8 9 7 7 7 10
7 9 9 10 11 9 9 10 8 7 8 9 8 7 7 6 6 7 9 9 7 8 8 9 8 7 8 16 17 18 19 9 6 8 11 11 9 9 8 8 8 8
Wind_Direction
166 169 166 167 167 167 165 166 169 156 150 152 152 156 155 148 148 143 135 131 132 129 130 127 128 125 121 114 111 107 109 115 114 126 123 121 122 122 117 113 102 112
176 170 168 161 156 159 167 172 163 159 155 159 154 146 144 146 151 144 143 136 132 130 129 131 133 132 129 123 123 119 118 125 125 143 128 122 125 115 112 114 113 114
172 173 171 170 167 166 166 166 161 156 154 154 143 148 149 150 145 147 143 141 136 135 136 135 132 131 126 123 123 123 131 136 133 140 126 128 126 115 119 116 108 106
180 176 173 170 164 163 162 157 158 149 141 146 162 160 153 152 148 146 144 141 136 139 139 138 136 130 125 124 122 122 132 133 143 141 126 117 120 123 123 116 110 104
176 176 175 169 165 162 161 162 162 162 163 160 148 154 152 152 149 148 146 144 143 143 144 141 134 130 130 130 134 135 145 148 159 147 134 130 142 130 133 122 122 119
178 179 174 171 167 165 169 171 168 165 162 160 165 156 159 154 153 154 153 150 155 149 145 141 136 130 132 133 136 148 155 158 166 145 137 138 139 132 129 126 127 129
178 175 174 166 166 173 168 168 167 167 170 164 147 163 158 159 161 159 157 156 155 155 150 148 142 138 130 133 144 160 173 161 153 148 141 142 135 127 123 128 132 133
179 175 169 166 171 173 173 171 170 171 166 154 167 163 165 165 163 160 157 157 156 150 145 142 142 142 147 148 160 165 168 169 159 155 148 145 138 137 137 135 135 134
176 175 169 172 173 176 176 172 172 170 167 167 167 165 169 171 165 160 158 156 151 149 147 151 155 156 154 150 162 171 170 178 180 167 157 153 151 154 150 142 134 140
181 175 173 177 180 179 176 174 172 173 170 171 168 164 167 169 163 157 154 157 152 153 161 162 158 150 151 166 176 182 180 178 178 175 163 158 157 159 156 153 151 148
182 180 182 182 182 177 178 172 175 173 175 173 164 170 169 160 160 159 161 162 164 169 170 169 164 159 165 176 185 189 187 177 174 169 160 157 165 165 161 157 160 166
186 183 188 186 181 178 177 176 174 176 175 173 172 170 168 172 165 171 176 176 173 173 171 165 164 169 174 175 177 185 185 174 166 164 156 155 165 169 164 167 166 172
189 189 186 184 182 178 171 171 174 174 174 176 175 174 172 173 176 177 188 179 174 170 174 170 167 168 170 173 180 185 178 159 158 155 150 157 173 172 170 170 171 173
191 183 182 182 176 169 171 171 170 172 176 172 170 179 182 180 178 182 180 177 175 177 171 163 164 170 174 176 184 188 175 164 163 157 155 170 175 180 179 180 180 181
179 178 175 171 170 168 172 175 175 175 174 174 181 183 182 179 172 174 171 176 177 174 170 171 179 184 181 180 181 186 173 162 164 163 165 175 186 189 194 189 189 189
174 172 175 171 170 178 178 175 176 175 174 177 183 181 174 175 174 176 182 183 179 180 175 178 188 189 189 190 191 180 170 167 153 166 172 182 189 198 205 204 199 196
169 176 173 178 179 173 170 174 175 173 177 181 182 181 178 174 172 180 188 188 186 182 183 191 195 194 195 198 193 183 172 168 172 176 178 187 199 202 207 205 206 205
173 171 175 180 174 176 173 172 169 172 180 183 180 180 181 167 183 193 189 191 189 188 194 198 199 198 200 201 194 187 178 171 173 177 183 195 202 210 214 204 206 206
168 171 177 178 181 173 167 165 173 177 180 182 191 185 167 183 196 190 198 196 195 196 201 199 202 201 203 203 198 192 183 174 179 182 186 201 205 211 212 209 203 208
169 172 178 177 171 171 170 176 179 188 188 184 170 168 188 195 196 200 200 203 203 202 203 200 205 206 206 206 201 195 189 181 184 187 197 203 209 210 212 211 208 207
168 170 172 171 174 176 177 181 185 185 185 186 182 189 191 196 197 199 205 206 206 205 205 208 213 207 210 209 204 196 194 184 177 192 198 210 215 215 216 214 215 214
165 170 174 177 177 176 181 186 187 191 192 186 186 196 200 198 211 207 210 209 207 203 207 218 219 210 213 213 208 199 194 181 175 192 201 210 219 219 218 219 216 215
173 175 179 175 174 178 188 191 191 195 195 182 193 200 198 203 205 209 209 205 206 205 211 222 221 212 214 218 215 204 194 183 179 190 203 209 222 218 218 218 218 217
174 173 174 176 175 187 192 197 198 199 201 189 197 199 205 210 208 211 212 208 209 212 212 217 224 211 214 220 221 213 203 192 185 193 206 211 222 221 216 224 223 224
166 169 173 176 187 195 194 196 198 200 195 186 205 208 217 206 201 211 217 217 217 221 213 217 229 216 214 220 222 219 211 196 187 195 210 219 218 229 222 219 227 228
164 173 181 186 196 195 192 200 192 185 187 190 201 203 209 202 200 211 219 226 218 219 223 221 227 227 217 223 222 222 217 196 184 191 219 220 216 223 224 230 225 227